Location: Cosy Dell
(34.2789°N, 117.4537°W)
Time: 21:12:10
(UTC+00:00)

PSLV R/B - Pass Details

Date: 14 July 2020
Orbit: 595 x 628 km, 97.9° (Epoch: 13 August)

Event Time Altitude Azimuth Distance (km) Brightness Sun altitude
Rises 11:47:02 0° 10° (N) 2,892 7.8 -11.7°
Reaches altitude 10° 11:49:13 10° 8° (N) 1,988 6.8 -11.3°
Maximum altitude 11:53:33 76° 284° (WNW) 645 3.5 -10.6°
Drops below altitude 10° 11:57:52 10° 199° (SSW) 1,990 5.7 -9.9°
Enters shadow 11:58:32 - 198° (SSW) 2,264 6.0 -9.7°
